GW6202 Weather Reports


time (UTC)temp
C
wind
direction
speed
KPH
gust
KPH
rain 1hr
cm
rain 24hr
cm
rain mn
cm
humidity
%
barometer
mb
20260504110357 7 275 1.6 1.6 0.00 0.00 0.00 60 1011.2
20260504100315 6 319 0.0 0.0 0.00 0.00 0.00 63 1010.8
20260504081708 6 294 0.0 1.6 0.00 0.00 0.00 59 1011.0
20260504081204 6 273 1.6 1.6 0.00 0.00 0.00 60 1011.2
20260504080701 6 269 1.6 1.6 0.00 0.00 0.00 59 1011.0
20260504080157 6 280 0.0 1.6 0.00 0.00 0.00 58 1011.2
20260504070125 6 329 0.0 0.0 0.00 0.00 0.00 63 1011.0
20260504050514 7 329 0.0 0.0 0.00 0.00 0.00 58 1011.1
20260504050011 7 297 1.6 1.6 0.00 0.00 0.00 58 1011.3
20260504045508 7 309 1.6 1.6 0.00 0.00 0.00 58 1011.2
20260504045003 7 248 3.2 3.2 0.00 0.00 0.00 57 1011.2
20260504044500 7 248 3.2 3.2 0.00 0.00 0.00 58 1011.2
20260504043957 7 323 0.0 0.0 0.00 0.00 0.00 60 1011.0
20260504043454 7 324 0.0 0.0 0.00 0.00 0.00 63 1011.1
20260504042952 7 281 1.6 1.6 0.00 0.00 0.00 62 1011.2
20260504042448 7 314 1.6 1.6 0.00 0.00 0.00 63 1011.4
20260504041945 7 329 0.0 0.0 0.00 0.00 0.00 59 1011.2
20260504041441 7 339 0.0 1.6 0.00 0.00 0.00 60 1011.1
20260504040937 7 331 0.0 0.0 0.00 0.00 0.00 61 1011.2
20260504040435 7 321 0.0 0.0 0.00 0.00 0.00 61 1011.1
20260504035931 7 326 0.0 0.0 0.00 0.00 0.00 64 1011.2
20260504035429 7 322 0.0 0.0 0.00 0.00 0.00 66 1011.2
20260504034925 7 320 0.0 0.0 0.00 0.00 0.00 70 1011.1
20260504034423 7 327 0.0 0.0 0.00 0.00 0.00 62 1011.1
20260504033920 7 327 0.0 0.0 0.00 0.00 0.00 61 1011.4
20260504033418 7 327 0.0 0.0 0.00 0.00 0.00 63 1011.1
20260504032914 7 329 0.0 0.0 0.00 0.00 0.00 59 1011.1
20260504032411 7 329 0.0 1.6 0.00 0.00 0.00 59 1011.3
20260504031908 7 329 0.0 0.0 0.00 0.00 0.00 60 1011.3
20260504031405 7 329 0.0 0.0 0.00 0.00 0.00 59 1011.4
20260504030901 7 329 0.0 0.0 0.00 0.00 0.00 59 1011.3
20260504030359 8 329 0.0 0.0 0.00 0.00 0.00 59 1011.3
20260504025854 8 328 0.0 0.0 0.00 0.00 0.00 59 1011.3
20260504025352 7 327 0.0 0.0 0.00 0.00 0.00 60 1011.6
20260504024848 8 326 0.0 0.0 0.00 0.00 0.00 59 1011.9
20260504024345 8 324 0.0 0.0 0.00 0.00 0.00 58 1011.5
20260504023842 8 340 0.0 1.6 0.00 0.00 0.00 59 1011.4
20260504023339 8 321 0.0 0.0 0.00 0.00 0.00 57 1011.5
20260504022834 8 318 1.6 1.6 0.00 0.00 0.00 55 1011.5
20260504022331 8 302 1.6 1.6 0.00 0.00 0.00 59 1011.9
20260504021828 7 4 0.0 1.6 0.00 0.00 0.00 60 1011.5
20260504021325 7 338 0.0 0.0 0.00 0.00 0.00 62 1011.5
20260504020822 7 348 0.0 0.0 0.00 0.00 0.00 60 1011.5
20260504020319 7 98 1.6 1.6 0.00 0.00 0.00 59 1011.5
20260504015815 8 324 0.0 0.0 0.00 0.00 0.00 59 1011.6
20260504015311 7 345 0.0 1.6 0.00 0.00 0.00 60 1011.5
20260504014807 7 297 1.6 3.2 0.00 0.00 0.00 57 1011.3
20260504014303 7 334 0.0 0.0 0.00 0.00 0.00 59 1011.4
20260504013801 7 358 0.0 0.0 0.00 0.00 0.00 58 1011.4
20260504013259 7 333 0.0 0.0 0.00 0.00 0.00 58 1011.5
20260504012755 7 348 0.0 0.0 0.00 0.00 0.00 57 1011.3
20260504012253 8 331 0.0 0.0 0.00 0.00 0.00 56 1011.6
20260504011750 8 325 0.0 1.6 0.00 0.00 0.00 53 1011.3
20260504011246 8 338 0.0 0.0 0.00 0.00 0.00 54 1011.2
20260504010743 9 340 0.0 0.0 0.00 0.00 0.00 52 1011.3
20260504010238 10 176 3.2 3.2 0.00 0.00 0.00 49 1011.3
20260504005735 10 213 3.2 4.8 0.00 0.00 0.00 47 1011.2
20260504005232 10 293 3.2 3.2 0.00 0.00 0.00 46 1011.2
20260504004730 10 280 0.0 1.6 0.00 0.00 0.00 46 1011.1
20260504004227 10 349 1.6 3.2 0.00 0.00 0.00 45 1011.3
20260504003723 9 322 1.6 4.8 0.00 0.00 0.00 47 1010.9
20260504003220 8 341 0.0 0.0 0.00 0.00 0.00 54 1011.0
20260504002717 8 337 0.0 0.0 0.00 0.00 0.00 56 1011.1
20260504002214 8 336 0.0 0.0 0.00 0.00 0.00 53 1010.6
20260504001712 8 336 0.0 0.0 0.00 0.00 0.00 52 1010.6
20260504001209 8 336 0.0 0.0 0.00 0.00 0.00 53 1010.6
20260504000705 8 336 0.0 0.0 0.00 0.00 0.00 53 1010.7
20260504000204 8 336 0.0 0.0 0.00 0.00 0.00 53 1010.5
20260503235700 9 336 0.0 0.0 0.00 0.00 0.00 51 1010.6
20260503235157 9 335 0.0 0.0 0.00 0.00 0.00 50 1010.4
20260503234655 10 310 0.0 0.0 0.00 0.00 0.00 48 1010.4
20260503234153 10 329 0.0 0.0 0.00 0.00 0.00 48 1010.6
20260503233649 10 286 1.6 1.6 0.00 0.00 0.00 46 1010.6
20260503233145 10 241 1.6 1.6 0.00 0.00 0.00 45 1010.5
20260503232642 10 290 1.6 1.6 0.00 0.00 0.00 46 1010.5
20260503232140 10 209 1.6 3.2 0.00 0.00 0.00 47 1010.4
20260503231638 11 160 1.6 1.6 0.00 0.00 0.00 47 1010.4
20260503231134 11 228 3.2 4.8 0.00 0.00 0.00 45 1010.5
20260503230631 11 307 0.0 0.0 0.00 0.00 0.00 45 1010.4
20260503230128 11 217 3.2 3.2 0.00 0.00 0.00 44 1010.5
20260503225625 11 327 0.0 0.0 0.00 0.00 0.00 44 1010.5
20260503225125 11 252 3.2 3.2 0.00 0.00 0.00 44 1010.3
20260503224622 11 285 1.6 1.6 0.00 0.00 0.00 43 1010.4
20260503224120 11 237 1.6 1.6 0.00 0.00 0.00 43 1010.5
20260503223618 11 244 3.2 4.8 0.00 0.00 0.00 42 1010.6
20260503223114 11 205 3.2 8.0 0.00 0.00 0.00 43 1010.5
20260503222612 11 309 3.2 4.8 0.00 0.00 0.00 42 1010.6
20260503222109 11 220 6.4 9.7 0.00 0.00 0.00 42 1010.6
20260503221607 11 271 8.0 11.3 0.00 0.00 0.00 41 1010.6
20260503221105 11 278 1.6 3.2 0.00 0.00 0.00 43 1010.8
20260503220601 11 319 0.0 1.6 0.00 0.00 0.00 42 1010.9
20260503220058 11 293 8.0 9.7 0.00 0.00 0.00 42 1010.9
20260503215555 12 257 6.4 9.7 0.00 0.00 0.00 41 1010.6
20260503215051 11 350 9.7 12.9 0.00 0.00 0.00 42 1010.8
20260503214550 11 320 8.0 9.7 0.00 0.00 0.00 42 1010.7
20260503214046 11 90 6.4 8.0 0.00 0.00 0.00 44 1010.6
20260503213544 11 23 3.2 4.8 0.00 0.00 0.00 44 1010.6
20260503213041 11 258 6.4 9.7 0.00 0.00 0.00 44 1010.7
20260503212538 11 238 8.0 12.9 0.00 0.00 0.00 44 1010.9
20260503212036 10 190 4.8 8.0 0.00 0.00 0.00 44 1010.7
20260503211533 10 14 8.0 11.3 0.00 0.00 0.00 44 1010.7
20260503211028 10 325 3.2 3.2 0.00 0.00 0.00 44 1010.7
20260503210525 10 281 6.4 9.7 0.00 0.00 0.00 42 1010.7
20260503210021 10 288 8.0 9.7 0.00 0.00 0.00 42 1010.5
20260503205518 11 314 8.0 12.9 0.00 0.00 0.00 41 1010.7
20260503205014 11 241 8.0 11.3 0.00 0.00 0.00 40 1010.3
20260503204511 11 306 4.8 8.0 0.00 0.00 0.00 41 1010.3
20260503204008 11 164 1.6 3.2 0.00 0.00 0.00 41 1010.4
20260503203505 11 354 6.4 9.7 0.00 0.00 0.00 39 1010.6
20260503203002 11 298 4.8 4.8 0.00 0.00 0.00 38 1010.4
20260503202500 11 60 1.6 1.6 0.00 0.00 0.00 39 1010.5
20260503201958 11 323 1.6 1.6 0.00 0.00 0.00 38 1010.4
20260503201456 11 262 3.2 3.2 0.00 0.00 0.00 39 1010.5
20260503200953 11 248 4.8 4.8 0.00 0.00 0.00 39 1010.4
20260503200449 11 268 8.0 12.9 0.00 0.00 0.00 38 1010.5
20260503195946 11 223 1.6 3.2 0.00 0.00 0.00 38 1010.7
20260503195443 11 265 8.0 9.7 0.00 0.00 0.00 37 1010.5
20260503194939 11 279 11.3 14.5 0.00 0.00 0.00 37 1010.8
20260503194437 11 291 3.2 4.8 0.00 0.00 0.00 37 1010.7
20260503193932 10 210 1.6 1.6 0.00 0.00 0.00 38 1010.7
20260503193427 11 214 6.4 9.7 0.00 0.00 0.00 39 1011.0
20260503192923 11 244 8.0 11.3 0.00 0.00 0.00 36 1011.0
20260503192420 11 13 4.8 4.8 0.00 0.00 0.00 36 1010.9
20260503191916 11 202 4.8 4.8 0.00 0.00 0.00 36 1010.9
20260503191414 10 174 6.4 12.9 0.00 0.00 0.00 37 1010.9
20260503190909 10 298 6.4 8.0 0.00 0.00 0.00 37 1011.1
20260503190407 10 13 1.6 1.6 0.00 0.00 0.00 36 1011.1
20260503185903 10 233 12.9 16.1 0.00 0.00 0.00 35 1010.9
20260503185400 10 295 1.6 3.2 0.00 0.00 0.00 35 1011.2
20260503184859 11 117 3.2 3.2 0.00 0.00 0.00 37 1011.2
20260503184356 10 0 4.8 4.8 0.00 0.00 0.00 35 1011.2
20260503183852 11 315 4.8 4.8 0.00 0.00 0.00 35 1011.1
20260503183349 10 209 8.0 11.3 0.00 0.00 0.00 36 1011.4
20260503182846 10 167 4.8 9.7 0.00 0.00 0.00 35 1011.6
20260503182345 10 332 3.2 3.2 0.00 0.00 0.00 36 1011.6
20260503181842 11 222 9.7 11.3 0.00 0.00 0.00 34 1011.6
20260503181339 11 161 6.4 9.7 0.00 0.00 0.00 36 1011.9
20260503180836 10 243 9.7 14.5 0.00 0.00 0.00 35 1011.5
20260503180334 10 322 1.6 3.2 0.00 0.00 0.00 40 1011.7
20260503175830 11 339 3.2 3.2 0.00 0.00 0.00 36 1012.0
20260503175328 10 20 1.6 3.2 0.00 0.00 0.00 37 1012.1
20260503174829 9 202 4.8 4.8 0.00 0.00 0.00 38 1012.2
20260503174327 10 117 3.2 4.8 0.00 0.00 0.00 38 1012.0
20260503173822 10 100 6.4 9.7 0.00 0.00 0.00 37 1012.4
20260503173319 9 0 0.0 1.6 0.00 0.00 0.00 38 1012.0
20260503172816 9 167 4.8 8.0 0.00 0.00 0.00 37 1012.2
20260503172314 8 238 6.4 11.3 0.00 0.00 0.00 37 1012.3
20260503171809 9 163 4.8 8.0 0.00 0.00 0.00 38 1012.3
20260503171306 10 153 4.8 8.0 0.00 0.00 0.00 36 1012.4
20260503170803 8 17 3.2 3.2 0.00 0.00 0.00 39 1012.1
20260503170300 8 300 3.2 4.8 0.00 0.00 0.00 37 1012.2
20260503150652 7 288 1.6 3.2 0.00 0.00 0.00 39 1013.1
20260503150148 7 299 3.2 3.2 0.00 0.00 0.00 40 1013.2
20260503140113 6 49 1.6 4.8 0.00 0.00 0.00 47 1013.2
20260503131042 5 235 4.8 4.8 0.00 0.00 0.00 54 1013.2
20260503130539 4 323 3.2 4.8 0.00 0.00 0.00 57 1013.3